DELTA 1 DEB, 37637

Orbit data source: Space-Track

DELTA 1 DEB, 37637 is space debris in SSO originally from a launch on Sun, 05 Mar 1978 UTC launched from the Air Force Western Test Range (AFWTR). Debris objects in space refer to the collection of defunct objects orbiting the Earth. Examples of debris include non-operational satellites, rocket bodies, and fragments generated from explosions, collisions, or faulty payload assembly.

Loading next visibility...
Identifier
37637, 1978-026HY
Orbit
SSO
Country
Flag of USUS
Related business
Manufacturer
Unknown
Mission
Spacecraft
Bus & Motor
Unknown
Mass
Unknown
Launch date (UTC)
1978-03-05 (48 years ago)
Launch vehicle
Unknown
Launch site
Air Force Western Test Range (AFWTR)
Object type
Payload
Rocket body
Debris
Shape & HBR
Unknown shape, 0.1 m
Radar Cross Section
Small (<0.1 m²)

Expand to show TLE details & history
Last TLE update: 3 days ago

TLE from 3 days ago
0 DELTA 1 DEB
1 37637U 78026HY  26171.06972923  .00000627  00000-0  47303-3 0  9999
2 37637  98.9762 117.6534 0071842 209.1668 150.5474 13.96687389195528
Epoch: 2026-06-20T01:40Z
TLE epoch observation values (Epoch: 2026-06-20T01:40:24.605Z)
Latitude
-0.00002°
Longitude
-175.73876°
Altitude
953.825 km
Speed
7.352 km/s
True Right ascension
07h 50m 36s
True Declination
0° 00' 00"
Sunlit
Object was in daylight at epoch
Visualization orbit readout
Latitude
Unknown
Longitude
Unknown
Altitude
Unknown
Speed
Unknown
Apparent Right ascension
Unknown
Apparent Declination
Unknown
Sunlit
N/A
Visualization observer readout
Local Sidereal Time
14:07:28
Azimuth
Unknown
Elevation
Unknown
Doppler factor
Unknown
Orbital elements
Apogee altitude
954.797 km
Perigee altitude
850.186 km
Semi-major axis
7,280.628 km
Eccentricity
0.00718
Inclination
98.9762°
RAAN
117.6534°
Arg. of periapsis
209.1668°
True anomaly
150.94905°
Mean anomaly
150.5474°
Eccentric anomaly
150.74854°
Mean motion
3.49373 °/min
Orbital period
103.04 mins
BSTAR
0.00047303
Loading maneuver chart data...
Computing Atmospheric mass density...

Documentation

Showing up to 5 results
|